Weather History for Syracuse, NY

Change the Weather History Date:

Monday, October 22, 2012

  Actual Average Record
Temperature  
Mean Temperature 55 °F 48 °F  
Max Temperature 65 °F 58 °F 84 °F (1979)
Min Temperature 45 °F 39 °F 24 °F (1948)
Degree Days  
Heating Degree Days 10 17  
Month to date heating degree days 233 290  
Since 1 July heating degree days 348 457  
Cooling Degree Days 0 0  
Month to date cooling degree days 2 0  
Year to date cooling degree days 953 565  
Growing Degree Days 4 (Base 50)    
Moisture  
Dew Point 44 °F    
Average Humidity 68    
Maximum Humidity 93    
Minimum Humidity 43    
Precipitation  
Precipitation 0.00 in 0.11 in 1.51 in (1988)
Month to date precipitation 2.98 2.44  
Year to date precipitation 25.12 30.72  
Snow  
Snow 0.00 in 0.00 in 2.40 in (1988)
Month to date snowfall 0.0 0.1  
Since 1 July snowfall 0.0 0.1  
Since 1 September snowfall 0.0 0.1  
Snow Depth 0.00 in    
Sea Level Pressure  
Sea Level Pressure 30.07 in    
Wind  
Wind Speed 8 mph (West)    
Max Wind Speed 18 mph    
Max Gust Speed 22 mph    
Visibility 10 miles    
Events      
T = Trace of Precipitation, MM = Missing Value Source: NWS Daily Summary

Daily Weather History Graph

Daily Weather History Graph

Search for Another Location

Airport:

Trip Planner

Search our weather history database for the weather conditions in past years. The results will help you decide how hot, cold, wet, or windy it might be!

Date:

Astronomy

Oct. 22, 2012 Rise Set
Actual Time 7:27 AM EDT 6:09 PM EDT
Civil Twilight 6:58 AM EDT 6:38 PM EDT
Nautical Twilight 6:24 AM EDT 7:11 PM EDT
Astronomical Twilight 5:52 AM EDT 7:44 PM EDT
Moon 2:26 PM EDT (10/22) 12:00 AM EDT (10/22)
Length of Visible Light 11h 40m
Length of Day
10h 42m
First Quarter, 56% of the Moon is Illuminated
Oct 22
First Quarter
Oct 29
Full
Nov 6
Last Quarter
Nov 13
New
Nov 20
First Quarter

Hourly Weather History & Observations

Time (EDT) Temp. Windchill Dew Point Humidity Pressure Visibility Wind Dir Wind Speed Gust Speed Precip Events Conditions
12:54 AM 50.0 °F - 45.0 °F 83% 30.02 in 10.0 mi WSW 12.7 mph - N/A   Scattered Clouds
1:54 AM 48.9 °F - 45.0 °F 86% 30.03 in 10.0 mi WSW 11.5 mph - N/A   Partly Cloudy
2:54 AM 48.0 °F - 44.1 °F 86% 30.04 in 10.0 mi West 8.1 mph - N/A   Partly Cloudy
3:54 AM 46.9 °F - 44.1 °F 90% 30.05 in 10.0 mi WSW 8.1 mph - N/A   Partly Cloudy
4:54 AM 46.0 °F 43.1 °F 43.0 °F 89% 30.05 in 10.0 mi WSW 5.8 mph - N/A   Clear
5:54 AM 46.9 °F - 44.1 °F 90% 30.06 in 9.0 mi West 9.2 mph - N/A   Clear
6:54 AM 46.9 °F - 44.1 °F 90% 30.07 in 9.0 mi WSW 10.4 mph - N/A   Scattered Clouds
7:54 AM 46.9 °F - 44.1 °F 90% 30.09 in 7.0 mi WSW 8.1 mph - N/A   Scattered Clouds
8:54 AM 51.1 °F - 45.0 °F 80% 30.09 in 10.0 mi West 10.4 mph - N/A   Scattered Clouds
9:54 AM 55.0 °F - 46.0 °F 72% 30.09 in 10.0 mi West 13.8 mph - N/A   Scattered Clouds
10:54 AM 57.9 °F - 46.0 °F 65% 30.09 in 10.0 mi West 10.4 mph - N/A   Scattered Clouds
11:54 AM 61.0 °F - 46.0 °F 58% 30.09 in 10.0 mi West 12.7 mph - N/A   Scattered Clouds
12:54 PM 63.0 °F - 46.0 °F 54% 30.08 in 10.0 mi West 15.0 mph - N/A   Scattered Clouds
1:54 PM 64.0 °F - 43.0 °F 46% 30.07 in 10.0 mi WNW 15.0 mph 20.7 mph N/A   Scattered Clouds
2:54 PM 64.0 °F - 41.0 °F 43% 30.07 in 10.0 mi WNW 15.0 mph 21.9 mph N/A   Mostly Cloudy
3:54 PM 64.0 °F - 42.1 °F 45% 30.07 in 10.0 mi West 15.0 mph - N/A   Mostly Cloudy
4:54 PM 62.1 °F - 42.1 °F 48% 30.07 in 10.0 mi WNW 12.7 mph - N/A   Scattered Clouds
5:54 PM 57.9 °F - 43.0 °F 58% 30.07 in 10.0 mi NW 5.8 mph - N/A   Scattered Clouds
6:54 PM 55.0 °F - 43.0 °F 64% 30.08 in 10.0 mi Calm Calm - N/A   Scattered Clouds
7:54 PM 52.0 °F - 43.0 °F 71% 30.09 in 10.0 mi Calm Calm - N/A   Partly Cloudy
8:54 PM 50.0 °F - 43.0 °F 77% 30.09 in 10.0 mi Calm Calm - N/A   Scattered Clouds
9:54 PM 48.9 °F - 43.0 °F 80% 30.08 in 10.0 mi Calm Calm - N/A   Partly Cloudy
10:54 PM 46.9 °F - 43.0 °F 86% 30.08 in 10.0 mi East 3.5 mph - N/A   Scattered Clouds
11:54 PM 46.9 °F - 42.1 °F 83% 30.09 in 10.0 mi ESE 3.5 mph - N/A   Scattered Clouds